Home   Weather   Kuujjuaq   Past weeks

Flag for Canada Past Weather in Kuujjuaq, Quebec, Canada — Yesterday and Last 2 Weeks

Now
32 °F

Light rain. Mostly cloudy.


Feels Like: 29 °F
Forecast: 13 / 38 °F
Wind: 3 mph from Southwest

Location: Kuujjuaq

Current Time: Apr 28, 2017 at 11:32:51 pm

Latest Report: Apr 28, 2017 at 11:00 pm


Visibility: 15 mi

Pressure: 29.41 "Hg

Humidity: 100%

Dew Point: 32 °F

Location of KuujjuaqLocation

Past Weather in Kuujjuaq — Graph

°F

Kuujjuaq Temperature Yesterday

Maximum temperature yesterday: 25 °F (at 4:00 pm)
Minimum temperature yesterday: 0 °F (at 4:52 am)
Average temperature yesterday: 13 °F

High & Low Weather Summary for the Past Weeks

 TemperatureHumidityPressure
High45 °F (Apr 22, 3:00 pm)100% (Apr 23, 2:00 am)30.54 "Hg (Apr 23, 2:00 am)
Low-13 °F (Apr 16, 5:00 am)30% (Apr 27, 2:00 pm)29.42 "Hg (Apr 28, 10:22 pm)
Average15 °F69%30.11 "Hg
* Reported Apr 13 10:00 pm — Apr 28 10:22 pm, Kuujjuaq, Weather by CustomWeather, © 2017

Note: Actual official high and low records may vary slightly from our data, if they occured in-between our weather recording intervals... More about our weather records

Advertising

Kuujjuaq Weather History for the Previous 24 Hours

Scroll right to see more
 ConditionsComfort  
Time TempWeatherWind HumidityBarometerVisibility
10:22 pm
Fri, Apr 28
32 °FLight rain. Overcast.2 mph100%29.42 "Hg12 mi
10:00 pm32 °FLight rain. Ice fog.No wind100%29.43 "Hg3 mi
9:52 pm32 °FLight rain. Ice fog.No wind100%29.43 "Hg2 mi
9:00 pm32 °FDrizzle. Ice fog.3 mph100%29.45 "Hg2 mi
8:00 pm32 °FLight freezing rain. Ice fog.6 mph93%29.47 "Hg3 mi
7:33 pm32 °FLight freezing rain. Ice fog.7 mph93%29.49 "Hg6 mi
7:24 pm32 °FLight freezing rain. Mostly cloudy.7 mph93%29.48 "Hg10 mi
7:00 pm32 °FLight freezing rain. Mostly cloudy.8 mph93%29.49 "Hg10 mi
6:00 pm30 °FLight mixture of precip. Mostly cloudy.7 mph100%29.55 "Hg8 mi
5:17 pm30 °FLight freezing rain. Ice fog.9 mph93%29.59 "Hg6 mi
5:00 pm30 °FLight mixture of precip. Ice fog.9 mph93%29.59 "Hg6 mi
4:38 pm30 °FLight mixture of precip. Ice fog.9 mph93%29.61 "Hg6 mi
4:00 pm30 °FLight snow. Mostly cloudy.14 mph86%29.65 "Hg15 mi
3:17 pm30 °FLight mixture of precip. Mostly cloudy.16 mph93%29.69 "Hg10 mi
3:00 pm28 °FLight mixture of precip. Low clouds.22 mph93%29.67 "Hg2 mi
2:00 pm28 °FLight mixture of precip. Mostly cloudy.21 mph86%29.75 "Hg8 mi
1:00 pm27 °FLight mixture of precip. Overcast.18 mph86%29.82 "Hg10 mi
12:00 pm25 °FLight snow. Overcast.16 mph86%29.88 "Hg15 mi
11:00 am23 °FLight snow. Overcast.13 mph86%29.94 "Hg12 mi
10:42 am21 °FLight snow. Overcast.12 mph93%29.98 "Hg8 mi
10:00 am23 °FLight snow. Overcast.12 mph63%30.01 "Hg2 mi
9:00 am23 °FOvercast.12 mph58%30.04 "Hg15 mi
8:00 am21 °FOvercast.10 mph58%30.09 "Hg15 mi
7:00 am18 °FOvercast.9 mph58%30.13 "Hg15 mi
6:00 am18 °FOvercast.6 mph58%30.16 "Hg15 mi
5:00 am16 °FPartly sunny.6 mph57%30.19 "Hg15 mi
4:00 am16 °FPassing clouds.5 mph57%30.21 "Hg15 mi
3:00 am16 °FPassing clouds.7 mph57%30.24 "Hg15 mi
2:00 am16 °FPassing clouds.5 mph57%30.26 "Hg15 mi
1:00 am16 °FPassing clouds.6 mph53%30.27 "Hg15 mi
12:00 am16 °FPassing clouds.5 mph57%30.28 "Hg15 mi
11:00 pm
Thu, Apr 27
18 °FPassing clouds.6 mph53%30.30 "Hg15 mi
Weather by CustomWeather, © 2017

See weather overviewHow to use our weather pages